• In Hungary
  • List of Countries
  • For 7 days
  • Water Temperature
  • Satellite Maps
  • Weather Map
  • News
  • Weather Widgets
  • user-avatar
    Login

    Hourly Weather Vyglyadovka

    Today, 25 April, Wednesday

    Time Temperature Precipitation Wind Pressure Humidity
    00:00 +7°C° 0 mm 2 mps 742 mmHg 59%
    01:00 +7°C° 0 mm 2 mps 742 mmHg 60%
    02:00 +6°C° 0 mm 2 mps 741 mmHg 60%
    03:00 +6°C° 0 mm 2 mps 741 mmHg 61%
    04:00 +6°C° 0.3 mm 2 mps 741 mmHg 65%
    05:00 +5°C° 0.3 mm 3 mps 741 mmHg 68%
    06:00 +5°C° 0.3 mm 3 mps 741 mmHg 72%
    07:00 +5°C° 0.6 mm 3 mps 740 mmHg 74%
    08:00 +5°C° 0.6 mm 3 mps 740 mmHg 77%
    09:00 +6°C° 0.6 mm 4 mps 740 mmHg 79%
    10:00 +7°C° 0 mm 4 mps 740 mmHg 76%
    11:00 +10°C° 0 mm 4 mps 740 mmHg 73%
    12:00 +12°C° 0 mm 4 mps 740 mmHg 70%
    13:00 +13°C° 0.1 mm 4 mps 740 mmHg 66%
    14:00 +14°C° 0.1 mm 5 mps 739 mmHg 62%
    15:00 +15°C° 0.1 mm 5 mps 739 mmHg 57%
    16:00 +14°C° 0.1 mm 5 mps 739 mmHg 59%
    17:00 +14°C° 0.1 mm 5 mps 738 mmHg 61%
    18:00 +14°C° 0.1 mm 4 mps 738 mmHg 63%
    19:00 +13°C° 0.1 mm 4 mps 738 mmHg 69%
    20:00 +12°C° 0.1 mm 4 mps 738 mmHg 76%
    21:00 +11°C° 0.1 mm 4 mps 738 mmHg 83%
    22:00 +10°C° 0.1 mm 4 mps 738 mmHg 85%
    23:00 +10°C° 0.1 mm 4 mps 738 mmHg 88%

    Tomorrow, 26 April, Thursday

    Time Temperature Precipitation Wind Pressure Humidity
    00:00 +10°C° 0.1 mm 3 mps 738 mmHg 91%
    01:00 +8°C° 0.1 mm 4 mps 737 mmHg 92%
    02:00 +8°C° 0.1 mm 4 mps 737 mmHg 92%
    03:00 +8°C° 0.1 mm 4 mps 736 mmHg 93%
    04:00 +9°C° 1.3 mm 5 mps 736 mmHg 93%
    05:00 +9°C° 1.3 mm 6 mps 735 mmHg 92%
    06:00 +10°C° 1.3 mm 7 mps 734 mmHg 92%
    07:00 +11°C° 0.4 mm 7 mps 734 mmHg 89%
    08:00 +12°C° 0.4 mm 7 mps 734 mmHg 86%
    09:00 +12°C° 0.4 mm 8 mps 734 mmHg 83%
    10:00 +13°C° 0.4 mm 8 mps 734 mmHg 78%
    11:00 +15°C° 0.4 mm 9 mps 734 mmHg 72%
    12:00 +16°C° 0.4 mm 9 mps 734 mmHg 66%
    13:00 +16°C° 0.2 mm 9 mps 735 mmHg 62%
    14:00 +16°C° 0.2 mm 10 mps 735 mmHg 59%
    15:00 +16°C° 0.2 mm 10 mps 735 mmHg 55%
    16:00 +14°C° 0 mm 10 mps 736 mmHg 57%
    17:00 +12°C° 0 mm 9 mps 737 mmHg 59%
    18:00 +11°C° 0 mm 9 mps 737 mmHg 62%
    19:00 +10°C° 0 mm 8 mps 738 mmHg 64%
    20:00 +9°C° 0 mm 7 mps 739 mmHg 67%
    21:00 +8°C° 0 mm 6 mps 740 mmHg 69%
    22:00 +8°C° 0 mm 5 mps 740 mmHg 70%
    23:00 +8°C° 0 mm 5 mps 741 mmHg 71%

    Day after tomorrow, 27 April, Friday

    Time Temperature Precipitation Wind Pressure Humidity
    00:00 +7°C° 0 mm 5 mps 741 mmHg 72%
    01:00 +7°C° 0 mm 4 mps 742 mmHg 75%
    02:00 +6°C° 0 mm 4 mps 742 mmHg 78%
    03:00 +6°C° 0 mm 4 mps 742 mmHg 81%
    04:00 +7°C° 0 mm 3 mps 743 mmHg 81%
    05:00 +7°C° 0 mm 3 mps 743 mmHg 82%
    06:00 +7°C° 0 mm 3 mps 743 mmHg 82%
    07:00 +8°C° 0 mm 3 mps 744 mmHg 77%
    08:00 +9°C° 0 mm 3 mps 744 mmHg 73%
    09:00 +10°C° 0 mm 3 mps 744 mmHg 68%
    10:00 +11°C° 0 mm 3 mps 744 mmHg 64%
    11:00 +13°C° 0 mm 3 mps 744 mmHg 59%
    12:00 +14°C° 0 mm 4 mps 744 mmHg 55%
    13:00 +14°C° 0 mm 4 mps 744 mmHg 54%
    14:00 +14°C° 0 mm 4 mps 744 mmHg 54%
    15:00 +14°C° 0 mm 3 mps 744 mmHg 54%
    16:00 +13°C° 0.1 mm 3 mps 744 mmHg 60%
    17:00 +13°C° 0.1 mm 3 mps 743 mmHg 65%
    18:00 +12°C° 0.1 mm 3 mps 743 mmHg 70%
    19:00 +11°C° 0.3 mm 3 mps 743 mmHg 75%
    20:00 +10°C° 0.3 mm 2 mps 743 mmHg 80%
    21:00 +10°C° 0.3 mm 2 mps 743 mmHg 84%
    22:00 +9°C° 0.2 mm 2 mps 743 mmHg 86%
    23:00 +9°C° 0.2 mm 2 mps 743 mmHg 88%

    28 April, Saturday

    Time Temperature Precipitation Wind Pressure Humidity
    00:00 +9°C° 0.2 mm 2 mps 743 mmHg 90%
    01:00 +9°C° 0.2 mm 3 mps 743 mmHg 91%
    02:00 +8°C° 0.2 mm 3 mps 743 mmHg 92%
    03:00 +8°C° 0.2 mm 3 mps 744 mmHg 93%
    04:00 +8°C° 0.1 mm 3 mps 744 mmHg 92%
    05:00 +8°C° 0.1 mm 3 mps 744 mmHg 92%
    06:00 +8°C° 0.1 mm 3 mps 744 mmHg 91%
    07:00 +8°C° 0 mm 4 mps 744 mmHg 83%
    08:00 +10°C° 0 mm 4 mps 745 mmHg 75%
    09:00 +12°C° 0 mm 4 mps 745 mmHg 67%
    10:00 +13°C° 0.1 mm 5 mps 745 mmHg 60%
    11:00 +14°C° 0.1 mm 5 mps 746 mmHg 53%
    12:00 +15°C° 0.1 mm 6 mps 746 mmHg 47%
    13:00 +15°C° 0.1 mm 6 mps 746 mmHg 46%
    14:00 +15°C° 0.1 mm 7 mps 746 mmHg 45%
    15:00 +15°C° 0.1 mm 7 mps 746 mmHg 44%
    16:00 +15°C° 0 mm 6 mps 747 mmHg 46%
    17:00 +14°C° 0 mm 6 mps 747 mmHg 48%
    18:00 +14°C° 0 mm 5 mps 747 mmHg 50%
    19:00 +12°C° 0 mm 5 mps 748 mmHg 54%
    20:00 +11°C° 0 mm 4 mps 748 mmHg 59%
    21:00 +10°C° 0 mm 3 mps 749 mmHg 64%
    22:00 +9°C° 0 mm 3 mps 749 mmHg 66%
    23:00 +9°C° 0 mm 3 mps 749 mmHg 68%

    29 April, Sunday

    Time Temperature Precipitation Wind Pressure Humidity
    00:00 +8°C° 0 mm 3 mps 750 mmHg 70%
    01:00 +8°C° 0 mm 3 mps 750 mmHg 71%
    02:00 +7°C° 0 mm 3 mps 750 mmHg 72%
    03:00 +7°C° 0 mm 3 mps 751 mmHg 74%
    04:00 +7°C° 0 mm 3 mps 751 mmHg 74%
    05:00 +7°C° 0 mm 3 mps 751 mmHg 75%
    06:00 +6°C° 0 mm 2 mps 751 mmHg 76%
    07:00 +8°C° 0 mm 3 mps 751 mmHg 69%
    08:00 +10°C° 0 mm 3 mps 752 mmHg 63%
    09:00 +12°C° 0 mm 3 mps 752 mmHg 56%
    10:00 +14°C° 0 mm 3 mps 751 mmHg 53%
    11:00 +15°C° 0 mm 4 mps 751 mmHg 49%
    12:00 +17°C° 0 mm 4 mps 751 mmHg 46%
    13:00 +17°C° 0 mm 5 mps 750 mmHg 46%
    14:00 +19°C° 0 mm 6 mps 750 mmHg 46%
    15:00 +19°C° 0 mm 6 mps 749 mmHg 46%
    16:00 +19°C° 0 mm 6 mps 749 mmHg 49%
    17:00 +19°C° 0 mm 5 mps 748 mmHg 52%
    18:00 +19°C° 0 mm 5 mps 748 mmHg 55%
    19:00 +17°C° 0 mm 5 mps 748 mmHg 60%
    20:00 +16°C° 0 mm 5 mps 748 mmHg 64%
    21:00 +14°C° 0 mm 5 mps 748 mmHg 68%
    22:00 +14°C° 0 mm 6 mps 748 mmHg 69%
    23:00 +14°C° 0 mm 6 mps 748 mmHg 71%

    30 April, Monday

    Time Temperature Precipitation Wind Pressure Humidity
    00:00 +14°C° 0 mm 6 mps 747 mmHg 73%
    01:00 +13°C° 0 mm 6 mps 747 mmHg 74%
    02:00 +13°C° 0 mm 5 mps 747 mmHg 76%
    03:00 +12°C° 0 mm 5 mps 747 mmHg 78%
    04:00 +12°C° 0 mm 5 mps 748 mmHg 79%
    05:00 +12°C° 0 mm 5 mps 748 mmHg 80%
    06:00 +12°C° 0 mm 5 mps 748 mmHg 81%
    07:00 +13°C° 0 mm 5 mps 748 mmHg 76%
    08:00 +15°C° 0 mm 5 mps 748 mmHg 72%
    09:00 +16°C° 0 mm 5 mps 748 mmHg 67%
    10:00 +19°C° 0 mm 5 mps 748 mmHg 63%
    11:00 +20°C° 0 mm 5 mps 747 mmHg 58%
    12:00 +22°C° 0 mm 5 mps 747 mmHg 54%
    13:00 +22°C° 0.1 mm 6 mps 747 mmHg 52%
    14:00 +23°C° 0.1 mm 6 mps 747 mmHg 50%
    15:00 +23°C° 0.1 mm 6 mps 747 mmHg 48%
    16:00 +23°C° 0 mm 5 mps 746 mmHg 50%
    17:00 +22°C° 0 mm 5 mps 746 mmHg 51%
    18:00 +22°C° 0 mm 4 mps 746 mmHg 53%
    19:00 +20°C° 0 mm 4 mps 746 mmHg 57%
    20:00 +19°C° 0 mm 4 mps 746 mmHg 61%
    21:00 +17°C° 0 mm 4 mps 746 mmHg 66%
    22:00 +17°C° 0 mm 4 mps 746 mmHg 68%
    23:00 +15°C° 0 mm 4 mps 746 mmHg 70%
    Show more